This is the latest recevied weather packets stored in our database for station/object IZ6EGX-13. If no packets are shown the sender has not sent any weather packets the latest 10 day(s).
| Time | Temp. | Humidity | Pressure | Rain* | Wind** | Luminosity | Snow |
|---|---|---|---|---|---|---|---|
| 1777483581 | 18.33° C | 59% | 1015 hPa | 0 mm | - | - | - |
| 1777482982 | 19.44° C | 58% | 1014.9 hPa | 0 mm | - | - | - |
| 1777482381 | 19.44° C | 58% | 1014.7 hPa | 0 mm | - | - | - |
| 1777481781 | 19.44° C | 66% | 1014.7 hPa | 0 mm | - | - | - |
| 1777481181 | 19.44° C | 68% | 1014.7 hPa | 0 mm | - | - | - |
| 1777480581 | 18.89° C | 70% | 1014.7 hPa | 0 mm | - | - | - |
| 1777479981 | 19.44° C | 69% | 1014.7 hPa | 0 mm | - | - | - |
| 1777479381 | 19.44° C | 66% | 1014.7 hPa | 0 mm | - | - | - |
| 1777478781 | 20° C | 64% | 1014.6 hPa | 0 mm | - | - | - |
| 1777478181 | 20° C | 65% | 1014.5 hPa | 0 mm | - | - | - |
| 1777477581 | 20.56° C | 64% | 1014.3 hPa | 0 mm | - | - | - |
| 1777476981 | 20.56° C | 64% | 1014.2 hPa | 0 mm | - | - | - |
| 1777476381 | 20.56° C | 65% | 1014.3 hPa | 0 mm | - | - | - |
| 1777475781 | 20.56° C | 65% | 1014.3 hPa | 0 mm | - | - | - |
| 1777475181 | 20.56° C | 64% | 1014.3 hPa | 0 mm | - | - | - |
| 1777474581 | 21.11° C | 64% | 1014.2 hPa | 0 mm | - | - | - |
| 1777473981 | 20.56° C | 65% | 1014.3 hPa | 0 mm | - | - | - |
| 1777473381 | 20.56° C | 66% | 1014.4 hPa | 0 mm | - | - | - |
| 1777472781 | 20.56° C | 68% | 1014.5 hPa | 0 mm | - | - | - |
| 1777472181 | 20.56° C | 67% | 1014.4 hPa | 0 mm | - | - | - |
| 1777471581 | 20.56° C | 67% | 1014.4 hPa | 0 mm | - | - | - |
| 1777470981 | 21.11° C | 66% | 1014.5 hPa | 0 mm | - | - | - |
| 1777470381 | 20.56° C | 69% | 1014.5 hPa | 0 mm | - | - | - |
| 1777469781 | 20.56° C | 69% | 1014.5 hPa | 0 mm | - | - | - |
| 1777469181 | 20.56° C | 68% | 1014.5 hPa | 0 mm | - | - | - |
* Rain latest hour (hover to see other rain measurements)
** Current wind speed in m/s (hover to see current wind gust speed)